#timestamp,LO_Frequency,Hit,StdDev 
1567119615.0,286046999.2,N
1567119615.9,286046999.2,N
1567119635.8,286046999.5,N
1567119655.6,286046996.7,Y
1567119675.4,286046998.4,P
1567119695.3,286046998.4,P
1567119715.1,286046998.6,P
1567119735.9,286046998.8,Y
1567119755.7,286047000.9,P
1567119775.5,286047000.5,N
1567119795.4,286047001.2,N
1567119815.2,286046998.5,N
1567119835.1,286046998.8,N
1567119836.0,286046998.8,N
1567119855.8,286046998.3,N
1567119875.6,286047001.1,N
1567119895.5,286047000.4,N
1567119915.3,286047000.7,N
1567119935.1,286047000.7,N
1567119955.9,286046998.9,N
1567119975.7,286046998.6,N
1567119995.6,286046996.8,N
1567120015.4,286046998.9,N
1567120035.2,286046997.1,N
1567120055.1,286046997.7,N
1567120056.0,286046997.7,N
1567120075.8,286046996.6,N
1567120095.7,286046999.3,N
1567120115.5,286046996.9,N
1567120135.3,286046999.1,N
1567120155.2,286046997.3,N
1567120175.0,286046997.6,N
1567120175.9,286046997.6,N
1567120195.8,286046995.3,Y
1567120215.6,286046996.9,P
1567120235.4,286046999.6,N
1567120255.3,286046996.7,N
1567120275.1,286046997.6,N
1567120295.9,286046995.8,Y
1567120315.7,286046999.6,P
1567120335.5,286046998.5,N
1567120355.4,286047001.1,N
1567120375.2,286047001.2,N
1567120395.0,286046998.2,N
1567120395.9,286046998.2,N
1567120415.8,286047001.2,N
1567120435.6,286046998.6,N
1567120455.5,286046998.1,N
1567120475.3,286046998.6,N
1567120495.1,286047001.0,N
1567120515.9,286047001.2,N
1567120535.7,286047000.7,N
1567120555.6,286046999.7,N
1567120575.4,286046999.8,N
1567120595.2,286047002.8,N
1567120615.1,286047002.8,N
1567120616.0,286047002.8,N
1567120635.8,286047000.7,N
1567120655.6,286047002.2,N
1567120675.5,286047002.8,N
1567120695.3,286047001.6,N
1567120715.2,286047001.6,N
1567120735.9,286047000.0,N
1567120755.7,286046999.9,N
1567120775.6,286047000.2,N
1567120795.4,286047000.7,N
1567120815.3,286047000.5,N
1567120835.1,286047000.1,N
1567120836.0,286047000.1,N
1567120855.8,286047002.5,N
1567120875.7,286047002.8,N
1567120895.5,286047001.8,N
1567120915.3,286047004.4,Y
1567120935.2,286047001.5,P
1567120955.0,286047001.5,P
1567120955.9,286047001.5,P
1567120975.8,286047001.3,Y
1567120995.6,286047002.8,P
1567121015.4,286046999.9,N
1567121035.3,286047001.0,N
1567121055.1,286047000.9,N
1567121075.9,286047001.0,N
1567121095.7,286047001.0,N
1567121115.5,286047000.4,N
1567121135.4,286047000.7,N
1567121155.2,286047000.6,N
1567121175.0,286047001.0,N
1567121175.9,286047001.0,N
1567121195.8,286046998.5,N
1567121215.6,286046998.1,N
1567121235.5,286047000.5,N
1567121255.3,286047001.1,N
1567121275.1,286047001.1,N
1567121295.9,286047000.3,N
1567121315.7,286047002.8,N
1567121335.5,286046999.7,N
1567121355.4,286047002.3,N
1567121375.2,286047002.4,N
1567121395.1,286047003.3,N
1567121396.0,286047003.3,N
1567121415.8,286047005.6,Y
1567121435.7,286047002.5,P
1567121455.5,286047002.4,P
1567121475.3,286047000.0,N
1567121495.2,286047001.0,N
1567121545.0,286047000.4,E
1567121555.9,286046999.8,N
1567121575.7,286046999.8,P
1567121595.5,286047000.0,P
1567121615.4,286047000.2,N
1567121635.2,286047000.0,N
1567121655.1,286047002.8,Y
1567121656.0,286047002.8,P
1567121675.8,286046999.9,N
1567121695.6,286047001.0,N
1567121715.5,286047000.8,N
1567121735.3,286047000.7,N
1567121755.2,286047000.8,N
1567121775.9,286046998.4,N
1567121795.7,286047000.7,N
1567121815.6,286047000.0,N
1567121835.4,286047002.6,N
1567121855.2,286046999.8,N
1567121875.1,286047000.9,N
1567121876.0,286047000.9,N
1567121895.8,286047000.5,N
1567121915.7,286047000.2,N
1567121935.5,286046999.7,N
1567121955.3,286047001.6,N
1567121975.2,286047003.5,Y
1567121995.0,286047000.4,P
1567121995.9,286047000.4,P
1567122015.8,286047000.6,P
1567122035.6,286047000.9,Y
1567122055.4,286046998.5,P
1567122075.3,286047000.6,N
1567122095.1,286047000.9,N
1567122115.8,286047000.0,N
1567122135.7,286046998.3,N
1567122155.5,286047001.0,N
1567122175.4,286047001.1,N
1567122195.2,286046999.4,N
1567122215.0,286046999.2,N
1567122215.9,286046999.2,N
1567122235.8,286046998.4,N
1567122255.6,286046998.1,N
1567122275.5,286046999.6,N
1567122295.3,286046998.9,N
1567122315.1,286046998.2,N
1567122335.9,286046998.6,N
1567122355.7,286046998.5,N
1567122375.5,286047000.4,N
1567122395.4,286047000.3,N
1567122415.2,286047000.2,N
1567122435.1,286047000.1,N
1567122436.0,286047000.1,N
1567122455.8,286047002.8,N
1567122475.6,286047001.6,N
1567122495.5,286047002.7,N
1567122515.3,286047002.1,N
1567122535.2,286047004.3,Y
1567122555.9,286047004.0,P
1567122575.7,286047004.4,N
1567122595.6,286047004.4,N
1567122615.4,286047001.9,N
1567122635.2,286047001.4,N
1567122655.1,286047001.3,N
1567122656.0,286047001.3,N
1567122675.8,286047001.5,N
1567122695.7,286047002.2,N
1567122715.5,286047001.3,N
1567122735.3,286047002.5,N
1567122755.2,286047002.3,N
1567122775.0,286046999.7,N
1567122775.9,286046999.7,N
1567122795.8,286046998.7,N
1567122815.6,286046998.2,N
1567122835.4,286047000.6,N
1567122855.3,286047002.3,N
1567122875.1,286046998.1,N
1567122895.9,286046998.6,N
1567122915.7,286046998.6,N
1567122935.5,286046998.6,N
1567122955.4,286046998.5,N
1567122975.2,286046999.2,N
1567122995.0,286046999.5,N
1567122995.9,286046999.5,N
1567123015.8,286046998.3,N
1567123035.6,286046999.1,N
1567123055.5,286046999.4,N
1567123075.3,286046999.2,N
1567123095.1,286046998.9,N
1567123115.9,286046999.4,N
1567123135.7,286046999.1,N
1567123155.5,286046996.5,N
1567123175.4,286046999.5,N
1567123195.2,286046999.4,N
